Location: La Brionne
(46.1728°N, 1.7849°E)
Time: 18:03:57
(UTC+00:00)

USA 215 - Pass Details

Date: 02 November 2021
Orbit: 1099 x 1109 km, 123.0° (Epoch: 20 November)

Event Time Altitude Azimuth Distance (km) Brightness Sun altitude
Exits shadow 21:25:51 19° 304° (NW) 2,356 5.4 -48.6°
Drops below altitude 10° 21:27:46 10° 294° (WNW) 2,963 6.0 -48.9°
Sets 21:30:28 0° 286° (WNW) 3,922 6.7 -49.2°
